MSC Nuria — 3ESE2 — position and weather

sailwx.info

Track history (hours):
 
Tides and Currents Weather Stations Pressure Air Temp Water Temp Dewpoint Dewpoint Depression Visibility Wind Speed Wind Dir Waves Ship Positions

MSC Nuria

Last reported at 2016-Jul-05 14:26 UTC. Time now 2016-Jul-24 16:41 UTC.
Position N 38°29' W 031°50'.
Warning: this ship's position is 19 days out of date.

Length 275 m; draft 10 m.

Type: Ship (hazmat cat A). MMSI: 370272977.

Date/timePositionNaut miles runAvg speedWind from/ knotsBaromVisibWave heightAir tempDewpointWater temp
2016-Jul-05 14:26N 38°29' W 031°50'3116.1
2016-Jul-05 12:29N 38°46' W 031°16'1516.5
2016-Jul-05 11:33N 38°54' W 030°59'1716.8
2016-Jul-05 10:33N 39°03' W 030°41'1716.9
2016-Jul-05 09:33N 39°12' W 030°22'1717.1
2016-Jul-05 08:33N 39°21' W 030°04'1716.9
2016-Jul-05 07:33N 39°30' W 029°46'1716.5
2016-Jul-05 06:33N 39°40' W 029°28'3015.1
2016-Jul-05 04:33N 39°57' W 028°55'1514.5
2016-Jul-05 03:32N 40°05' W 028°39'3415.2
2016-Jul-05 01:15N 40°24' W 028°02'1115.8
2016-Jul-05 00:33N 40°31' W 027°50'  
2016-Jul-01 22:32N 49°48' W 003°26'1616.5
2016-Jul-01 21:33N 49°55' W 003°03'1616.1
2016-Jul-01 20:34N 50°01' W 002°40'1614.9
2016-Jul-01 19:29N 50°05' W 002°16'4912.5
2016-Jul-01 15:33N 50°19' W 001°03'3015.0
2016-Jul-01 13:33N 50°28' W 000°17'1616.3
2016-Jul-01 12:34N 50°32' E 000°07'1816.3
2016-Jul-01 11:29N 50°38' E 000°33'2914.5
2016-Jul-01 09:31N 50°55' E 001°09'1212.7
2016-Jul-01 08:34N 51°03' E 001°24'1212.5
2016-Jul-01 07:33N 51°11' E 001°40'1414.1
2016-Jul-01 06:34N 51°22' E 001°53'1616.0
2016-Jul-01 05:34N 51°34' E 002°10'1716.6
2016-Jul-01 04:33N 51°47' E 002°28'3115.7
2016-Jul-01 02:33N 52°12' E 002°59'3114.3
2016-Jul-01 00:24N 52°37' E 003°29'4214.4
2016-Jun-30 21:29N 53°06' E 004°18'3015.6
2016-Jun-30 19:33N 53°31' E 004°47'1616.4
2016-Jun-30 18:34N 53°36' E 005°13'1615.5
2016-Jun-30 17:33N 53°42' E 005°38'1514.7
2016-Jun-30 16:33N 53°46' E 006°01'1514.6
2016-Jun-30 15:33N 53°51' E 006°25'1514.6
2016-Jun-30 14:33N 53°54' E 006°49'1515.2
2016-Jun-30 13:33N 53°58' E 007°14'1615.8
2016-Jun-30 12:33N 54°01' E 007°40'1616.2
2016-Jun-30 11:33N 54°01' E 008°08'1616.2
2016-Jun-30 10:34N 53°58' E 008°34'1413.5
2016-Jun-30 09:33N 53°51' E 008°54'1110.9
2016-Jun-30 08:33N 53°53' E 009°12'1211.5
2016-Jun-30 07:33N 53°45' E 009°25'1111.1
2016-Jun-30 06:33N 53°36' E 009°36'9 8.6
2016-Jun-30 05:33N 53°33' E 009°50'3 2.5
2016-Jun-30 04:33N 53°32' E 009°54'0 0.0
2016-Jun-30 03:30N 53°32' E 009°54'0 0.0
2016-Jun-30 02:33N 53°32' E 009°54'0 0.0
2016-Jun-30 01:32N 53°32' E 009°54'0 0.0
2016-Jun-30 00:32N 53°32' E 009°54'0 0.0
2016-Jun-29 23:31N 53°32' E 009°54'0 0.0
2016-Jun-29 22:33N 53°32' E 009°54'0 0.0
2016-Jun-29 21:33N 53°32' E 009°54'0 0.0
2016-Jun-29 20:33N 53°32' E 009°54'0 0.0
2016-Jun-29 19:32N 53°32' E 009°54'0 0.0
2016-Jun-29 18:32N 53°32' E 009°54'0 0.0
2016-Jun-29 17:32N 53°32' E 009°54'0 0.0
2016-Jun-29 16:31N 53°32' E 009°54'0 0.0
2016-Jun-29 15:31N 53°32' E 009°54'0 0.0
2016-Jun-29 14:33N 53°32' E 009°54'3 2.8
2016-Jun-29 13:33N 53°33' E 009°50'8 8.2
2016-Jun-29 12:33N 53°35' E 009°36'10 9.8
2016-Jun-29 11:33N 53°44' E 009°27'1212.3
2016-Jun-29 10:34N 53°53' E 009°13'1111.2
2016-Jun-29 09:34N 53°51' E 008°55'1110.7
2016-Jun-29 08:34N 53°56' E 008°39'1616.2
2016-Jun-29 07:33N 53°60' E 008°12'1717.1
2016-Jun-29 06:33N 53°54' E 007°45'1615.6
2016-Jun-29 05:33N 53°48' E 008°09'1615.7
2016-Jun-29 04:33N 53°37' E 008°29'4 3.4
2016-Jun-29 03:31N 53°34' E 008°32'0 0.0
2016-Jun-29 02:28N 53°34' E 008°32'0 0.0
2016-Jun-29 01:33N 53°34' E 008°32'0 0.0
2016-Jun-29 00:33N 53°34' E 008°32'0 0.0
2016-Jun-28 23:32N 53°34' E 008°32'0 0.0
2016-Jun-28 22:32N 53°34' E 008°32'0 0.0
2016-Jun-28 21:29N 53°34' E 008°32'0 0.0
2016-Jun-28 20:31N 53°34' E 008°32'0 0.0
2016-Jun-28 19:31N 53°34' E 008°32'0 0.0
2016-Jun-28 18:30N 53°34' E 008°32'0 0.0
2016-Jun-28 17:33N 53°34' E 008°32'0 0.0
2016-Jun-28 16:29N 53°34' E 008°32'0 0.0
2016-Jun-28 15:32N 53°34' E 008°32'0 0.0
2016-Jun-28 14:32N 53°34' E 008°32'0 0.0
2016-Jun-28 13:28N 53°34' E 008°32'0 0.0
2016-Jun-28 12:31N 53°34' E 008°32'0 0.0
2016-Jun-28 11:33N 53°34' E 008°32'0 0.0
2016-Jun-28 10:33N 53°34' E 008°32'0 0.0
2016-Jun-28 09:32N 53°34' E 008°32'0 0.0
2016-Jun-28 08:32N 53°34' E 008°32'0 0.0
2016-Jun-28 07:32N 53°34' E 008°32'0 0.0
2016-Jun-28 06:31N 53°34' E 008°32'2512.7
2016-Jun-28 04:33N 53°51' E 008°01'8 8.3
2016-Jun-28 03:34N 53°54' E 007°47'1 1.3
2016-Jun-28 02:32N 53°55' E 007°47'0 0.0
2016-Jun-28 01:25N 53°55' E 007°47'0 0.0
2016-Jun-28 00:31N 53°55' E 007°47'0 0.0
2016-Jun-27 23:33N 53°55' E 007°47'0 0.0
2016-Jun-27 22:33N 53°55' E 007°47'0 0.0
2016-Jun-27 21:32N 53°55' E 007°47'0 0.0
2016-Jun-27 20:32N 53°55' E 007°47'0 0.0
2016-Jun-27 19:32N 53°55' E 007°47'0 0.0
2016-Jun-27 18:28N 53°55' E 007°47'0 0.0
2016-Jun-27 17:31N 53°55' E 007°47'0 0.0
2016-Jun-27 16:33N 53°55' E 007°47'0 0.0
2016-Jun-27 15:33N 53°55' E 007°47'1 0.8
2016-Jun-27 14:33N 53°56' E 007°47'1414.0
2016-Jun-27 13:33N 53°53' E 007°24'1514.6
2016-Jun-27 12:33N 53°50' E 006°60'1514.8
2016-Jun-27 11:34N 53°47' E 006°35'1515.4
2016-Jun-27 10:34N 53°43' E 006°10'1615.7
2016-Jun-27 09:33N 53°38' E 005°45'1615.7
2016-Jun-27 08:34N 53°32' E 005°20'1615.7
2016-Jun-27 07:34N 53°27' E 004°55'2914.7
2016-Jun-27 05:33N 53°04' E 004°25'1414.4
2016-Jun-27 04:33N 52°51' E 004°14'1414.1
2016-Jun-27 03:33N 52°40' E 004°00'1413.7
2016-Jun-27 02:30N 52°31' E 003°43'1313.5
2016-Jun-27 01:33N 52°21' E 003°29'1413.3
2016-Jun-27 00:30N 52°12' E 003°12'2713.5
2016-Jun-26 22:31N 51°59' E 002°33'1814.8
2016-Jun-26 21:18N 51°52' E 002°06'1114.8
2016-Jun-26 20:33N 51°49' E 001°49'1010.4
2016-Jun-26 19:34N 51°47' E 001°33'1918.7
2016-Jun-26 18:33N 51°34' E 001°12'1717.2
2016-Jun-26 17:33N 51°29' E 000°45'1212.3
2016-Jun-26 16:34N 51°27' E 000°26'4 3.6
2016-Jun-26 15:34N 51°28' E 000°20'0 0.0
2016-Jun-26 14:34N 51°28' E 000°20'0 0.0
2016-Jun-26 13:34N 51°28' E 000°20'0 0.0
2016-Jun-26 12:34N 51°28' E 000°20'0 0.0
2016-Jun-26 11:34N 51°28' E 000°20'0 0.0
2016-Jun-26 10:34N 51°28' E 000°20'0 0.0
2016-Jun-26 09:34N 51°28' E 000°20'0 0.0
2016-Jun-26 08:34N 51°28' E 000°20'0 0.0
2016-Jun-26 07:34N 51°28' E 000°20'0 0.0
2016-Jun-26 06:34N 51°28' E 000°20'0 0.0
2016-Jun-26 05:34N 51°28' E 000°20'0 0.0
2016-Jun-26 04:34N 51°28' E 000°20'0 0.0
2016-Jun-26 03:34N 51°28' E 000°20'0 0.0
2016-Jun-26 02:34N 51°28' E 000°20'0 0.0
2016-Jun-26 01:34N 51°28' E 000°20'0 0.0
2016-Jun-26 00:34N 51°28' E 000°20'0 0.0
2016-Jun-25 23:33N 51°28' E 000°20'0 0.0
2016-Jun-25 22:33N 51°28' E 000°20'0 0.0
2016-Jun-25 21:33N 51°28' E 000°20'0 0.0
2016-Jun-25 20:33N 51°28' E 000°20'0 0.0
2016-Jun-25 19:33N 51°28' E 000°20'0 0.0
2016-Jun-25 18:33N 51°28' E 000°20'0 0.0
2016-Jun-25 17:33N 51°28' E 000°20'0 0.4
2016-Jun-25 16:33N 51°27' E 000°20'6 5.9
2016-Jun-25 15:33N 51°30' E 000°29'1211.7
2016-Jun-25 14:33N 51°29' E 000°48'  
Track history (hours):
 
Tides and Currents Weather Stations Pressure Air Temp Water Temp Dewpoint Dewpoint Depression Visibility Wind Speed Wind Dir Waves Ship Positions

MSC Nuria

Last reported at 2016-Jul-05 14:26 UTC. Time now 2016-Jul-24 16:41 UTC.
Position N 38°29' W 031°50'.
Warning: this ship's position is 19 days out of date.

Length 275 m; draft 10 m.

Type: Ship (hazmat cat A). MMSI: 370272977.

Date/timePositionNaut miles runAvg speedWind from/ knotsBaromVisibWave heightAir tempDewpointWater temp
2016-Jul-05 14:26N 38°29' W 031°50'3116.1
2016-Jul-05 12:29N 38°46' W 031°16'1516.5
2016-Jul-05 11:33N 38°54' W 030°59'1716.8
2016-Jul-05 10:33N 39°03' W 030°41'1716.9
2016-Jul-05 09:33N 39°12' W 030°22'1717.1
2016-Jul-05 08:33N 39°21' W 030°04'1716.9
2016-Jul-05 07:33N 39°30' W 029°46'1716.5
2016-Jul-05 06:33N 39°40' W 029°28'3015.1
2016-Jul-05 04:33N 39°57' W 028°55'1514.5
2016-Jul-05 03:32N 40°05' W 028°39'3415.2
2016-Jul-05 01:15N 40°24' W 028°02'1115.8
2016-Jul-05 00:33N 40°31' W 027°50'  
2016-Jul-01 22:32N 49°48' W 003°26'1616.5
2016-Jul-01 21:33N 49°55' W 003°03'1616.1
2016-Jul-01 20:34N 50°01' W 002°40'1614.9
2016-Jul-01 19:29N 50°05' W 002°16'4912.5
2016-Jul-01 15:33N 50°19' W 001°03'3015.0
2016-Jul-01 13:33N 50°28' W 000°17'1616.3
2016-Jul-01 12:34N 50°32' E 000°07'1816.3
2016-Jul-01 11:29N 50°38' E 000°33'2914.5
2016-Jul-01 09:31N 50°55' E 001°09'1212.7
2016-Jul-01 08:34N 51°03' E 001°24'1212.5
2016-Jul-01 07:33N 51°11' E 001°40'1414.1
2016-Jul-01 06:34N 51°22' E 001°53'1616.0
2016-Jul-01 05:34N 51°34' E 002°10'1716.6
2016-Jul-01 04:33N 51°47' E 002°28'3115.7
2016-Jul-01 02:33N 52°12' E 002°59'3114.3
2016-Jul-01 00:24N 52°37' E 003°29'4214.4
2016-Jun-30 21:29N 53°06' E 004°18'3015.6
2016-Jun-30 19:33N 53°31' E 004°47'1616.4
2016-Jun-30 18:34N 53°36' E 005°13'1615.5
2016-Jun-30 17:33N 53°42' E 005°38'1514.7
2016-Jun-30 16:33N 53°46' E 006°01'1514.6
2016-Jun-30 15:33N 53°51' E 006°25'1514.6
2016-Jun-30 14:33N 53°54' E 006°49'1515.2
2016-Jun-30 13:33N 53°58' E 007°14'1615.8
2016-Jun-30 12:33N 54°01' E 007°40'1616.2
2016-Jun-30 11:33N 54°01' E 008°08'1616.2
2016-Jun-30 10:34N 53°58' E 008°34'1413.5
2016-Jun-30 09:33N 53°51' E 008°54'1110.9
2016-Jun-30 08:33N 53°53' E 009°12'1211.5
2016-Jun-30 07:33N 53°45' E 009°25'1111.1
2016-Jun-30 06:33N 53°36' E 009°36'9 8.6
2016-Jun-30 05:33N 53°33' E 009°50'3 2.5
2016-Jun-30 04:33N 53°32' E 009°54'0 0.0
2016-Jun-30 03:30N 53°32' E 009°54'0 0.0
2016-Jun-30 02:33N 53°32' E 009°54'0 0.0
2016-Jun-30 01:32N 53°32' E 009°54'0 0.0
2016-Jun-30 00:32N 53°32' E 009°54'0 0.0
2016-Jun-29 23:31N 53°32' E 009°54'0 0.0
2016-Jun-29 22:33N 53°32' E 009°54'0 0.0
2016-Jun-29 21:33N 53°32' E 009°54'0 0.0
2016-Jun-29 20:33N 53°32' E 009°54'0 0.0
2016-Jun-29 19:32N 53°32' E 009°54'0 0.0
2016-Jun-29 18:32N 53°32' E 009°54'0 0.0
2016-Jun-29 17:32N 53°32' E 009°54'0 0.0
2016-Jun-29 16:31N 53°32' E 009°54'0 0.0
2016-Jun-29 15:31N 53°32' E 009°54'0 0.0
2016-Jun-29 14:33N 53°32' E 009°54'3 2.8
2016-Jun-29 13:33N 53°33' E 009°50'8 8.2
2016-Jun-29 12:33N 53°35' E 009°36'10 9.8
2016-Jun-29 11:33N 53°44' E 009°27'1212.3
2016-Jun-29 10:34N 53°53' E 009°13'1111.2
2016-Jun-29 09:34N 53°51' E 008°55'1110.7
2016-Jun-29 08:34N 53°56' E 008°39'1616.2
2016-Jun-29 07:33N 53°60' E 008°12'1717.1
2016-Jun-29 06:33N 53°54' E 007°45'1615.6
2016-Jun-29 05:33N 53°48' E 008°09'1615.7
2016-Jun-29 04:33N 53°37' E 008°29'4 3.4
2016-Jun-29 03:31N 53°34' E 008°32'0 0.0
2016-Jun-29 02:28N 53°34' E 008°32'0 0.0
2016-Jun-29 01:33N 53°34' E 008°32'0 0.0
2016-Jun-29 00:33N 53°34' E 008°32'0 0.0
2016-Jun-28 23:32N 53°34' E 008°32'0 0.0
2016-Jun-28 22:32N 53°34' E 008°32'0 0.0
2016-Jun-28 21:29N 53°34' E 008°32'0 0.0
2016-Jun-28 20:31N 53°34' E 008°32'0 0.0
2016-Jun-28 19:31N 53°34' E 008°32'0 0.0
2016-Jun-28 18:30N 53°34' E 008°32'0 0.0
2016-Jun-28 17:33N 53°34' E 008°32'0 0.0
2016-Jun-28 16:29N 53°34' E 008°32'0 0.0
2016-Jun-28 15:32N 53°34' E 008°32'0 0.0
2016-Jun-28 14:32N 53°34' E 008°32'0 0.0
2016-Jun-28 13:28N 53°34' E 008°32'0 0.0
2016-Jun-28 12:31N 53°34' E 008°32'0 0.0
2016-Jun-28 11:33N 53°34' E 008°32'0 0.0
2016-Jun-28 10:33N 53°34' E 008°32'0 0.0
2016-Jun-28 09:32N 53°34' E 008°32'0 0.0
2016-Jun-28 08:32N 53°34' E 008°32'0 0.0
2016-Jun-28 07:32N 53°34' E 008°32'0 0.0
2016-Jun-28 06:31N 53°34' E 008°32'2512.7
2016-Jun-28 04:33N 53°51' E 008°01'8 8.3
2016-Jun-28 03:34N 53°54' E 007°47'1 1.3
2016-Jun-28 02:32N 53°55' E 007°47'0 0.0
2016-Jun-28 01:25N 53°55' E 007°47'0 0.0
2016-Jun-28 00:31N 53°55' E 007°47'0 0.0
2016-Jun-27 23:33N 53°55' E 007°47'0 0.0
2016-Jun-27 22:33N 53°55' E 007°47'0 0.0
2016-Jun-27 21:32N 53°55' E 007°47'0 0.0
2016-Jun-27 20:32N 53°55' E 007°47'0 0.0
2016-Jun-27 19:32N 53°55' E 007°47'0 0.0
2016-Jun-27 18:28N 53°55' E 007°47'0 0.0
2016-Jun-27 17:31N 53°55' E 007°47'0 0.0
2016-Jun-27 16:33N 53°55' E 007°47'0 0.0
2016-Jun-27 15:33N 53°55' E 007°47'1 0.8
2016-Jun-27 14:33N 53°56' E 007°47'1414.0
2016-Jun-27 13:33N 53°53' E 007°24'1514.6
2016-Jun-27 12:33N 53°50' E 006°60'1514.8
2016-Jun-27 11:34N 53°47' E 006°35'1515.4
2016-Jun-27 10:34N 53°43' E 006°10'1615.7
2016-Jun-27 09:33N 53°38' E 005°45'1615.7
2016-Jun-27 08:34N 53°32' E 005°20'1615.7
2016-Jun-27 07:34N 53°27' E 004°55'2914.7
2016-Jun-27 05:33N 53°04' E 004°25'1414.4
2016-Jun-27 04:33N 52°51' E 004°14'1414.1
2016-Jun-27 03:33N 52°40' E 004°00'1413.7
2016-Jun-27 02:30N 52°31' E 003°43'1313.5
2016-Jun-27 01:33N 52°21' E 003°29'1413.3
2016-Jun-27 00:30N 52°12' E 003°12'2713.5
2016-Jun-26 22:31N 51°59' E 002°33'1814.8
2016-Jun-26 21:18N 51°52' E 002°06'1114.8
2016-Jun-26 20:33N 51°49' E 001°49'1010.4
2016-Jun-26 19:34N 51°47' E 001°33'1918.7
2016-Jun-26 18:33N 51°34' E 001°12'1717.2
2016-Jun-26 17:33N 51°29' E 000°45'1212.3
2016-Jun-26 16:34N 51°27' E 000°26'4 3.6
2016-Jun-26 15:34N 51°28' E 000°20'0 0.0
2016-Jun-26 14:34N 51°28' E 000°20'0 0.0
2016-Jun-26 13:34N 51°28' E 000°20'0 0.0
2016-Jun-26 12:34N 51°28' E 000°20'0 0.0
2016-Jun-26 11:34N 51°28' E 000°20'0 0.0
2016-Jun-26 10:34N 51°28' E 000°20'0 0.0
2016-Jun-26 09:34N 51°28' E 000°20'0 0.0
2016-Jun-26 08:34N 51°28' E 000°20'0 0.0
2016-Jun-26 07:34N 51°28' E 000°20'0 0.0
2016-Jun-26 06:34N 51°28' E 000°20'0 0.0
2016-Jun-26 05:34N 51°28' E 000°20'0 0.0
2016-Jun-26 04:34N 51°28' E 000°20'0 0.0
2016-Jun-26 03:34N 51°28' E 000°20'0 0.0
2016-Jun-26 02:34N 51°28' E 000°20'0 0.0
2016-Jun-26 01:34N 51°28' E 000°20'0 0.0
2016-Jun-26 00:34N 51°28' E 000°20'0 0.0
2016-Jun-25 23:33N 51°28' E 000°20'0 0.0
2016-Jun-25 22:33N 51°28' E 000°20'0 0.0
2016-Jun-25 21:33N 51°28' E 000°20'0 0.0
2016-Jun-25 20:33N 51°28' E 000°20'0 0.0
2016-Jun-25 19:33N 51°28' E 000°20'0 0.0
2016-Jun-25 18:33N 51°28' E 000°20'0 0.0
2016-Jun-25 17:33N 51°28' E 000°20'0 0.4
2016-Jun-25 16:33N 51°27' E 000°20'6 5.9
2016-Jun-25 15:33N 51°30' E 000°29'1211.7
2016-Jun-25 14:33N 51°29' E 000°48'  

Dump ship's entire track history